When you browse on this site, cookies collect data to enhance your experience and personalize the content and advertising you see.
Visit our Privacy Policy to learn more. By continuing to use the site, you agree to this use of cookies and data.
  • In Österreich
  • Länderverzeichnis
  • Für 7 Tage
  • Wassertemperatur
  • Satellitenkarten
  • Wetterkarte
  • News
  • Widgets
  • user-avatar
    Anmelden

    Stündliche Wetter Rigny-Ussé

    Heute, 21 Februar, Donnerstag

    Zeit Temperatur Niederschläge Wind Luftdruck Luftfeuchtigkeit
    00:00 +8°C° 0 mm 1 m/S 764 mmHg 89%
    01:00 +8°C° 0 mm 1 m/S 764 mmHg 90%
    02:00 +8°C° 0 mm 1 m/S 764 mmHg 91%
    03:00 +7°C° 0 mm 1 m/S 764 mmHg 91%
    04:00 +7°C° 0 mm 1 m/S 764 mmHg 91%
    05:00 +7°C° 0 mm 1 m/S 764 mmHg 92%
    06:00 +6°C° 0 mm 1 m/S 765 mmHg 92%
    07:00 +7°C° 0 mm 1 m/S 765 mmHg 89%
    08:00 +8°C° 0 mm 2 m/S 765 mmHg 85%
    09:00 +9°C° 0 mm 2 m/S 765 mmHg 82%
    10:00 +10°C° 0 mm 2 m/S 766 mmHg 76%
    11:00 +13°C° 0 mm 2 m/S 766 mmHg 69%
    12:00 +15°C° 0 mm 2 m/S 766 mmHg 62%
    13:00 +15°C° 0 mm 2 m/S 766 mmHg 61%
    14:00 +16°C° 0 mm 1 m/S 765 mmHg 59%
    15:00 +18°C° 0 mm 1 m/S 765 mmHg 57%
    16:00 +15°C° 0 mm 1 m/S 765 mmHg 63%
    17:00 +14°C° 0 mm 1 m/S 766 mmHg 68%
    18:00 +12°C° 0 mm 1 m/S 766 mmHg 74%
    19:00 +12°C° 0 mm 1 m/S 766 mmHg 77%
    20:00 +10°C° 0 mm 2 m/S 767 mmHg 79%
    21:00 +9°C° 0 mm 2 m/S 767 mmHg 81%
    22:00 +9°C° 0 mm 2 m/S 767 mmHg 82%
    23:00 +9°C° 0 mm 2 m/S 768 mmHg 83%

    Morgen, 22 Februar, Freitag

    Zeit Temperatur Niederschläge Wind Luftdruck Luftfeuchtigkeit
    00:00 +8°C° 0 mm 2 m/S 768 mmHg 84%
    01:00 +8°C° 0 mm 2 m/S 768 mmHg 84%
    02:00 +7°C° 0 mm 2 m/S 768 mmHg 84%
    03:00 +7°C° 0 mm 2 m/S 768 mmHg 85%
    04:00 +7°C° 0 mm 2 m/S 768 mmHg 85%
    05:00 +6°C° 0 mm 2 m/S 768 mmHg 85%
    06:00 +6°C° 0 mm 2 m/S 768 mmHg 85%
    07:00 +7°C° 0 mm 2 m/S 769 mmHg 81%
    08:00 +8°C° 0 mm 2 m/S 769 mmHg 77%
    09:00 +10°C° 0 mm 2 m/S 769 mmHg 73%
    10:00 +11°C° 0 mm 3 m/S 769 mmHg 68%
    11:00 +13°C° 0 mm 3 m/S 769 mmHg 63%
    12:00 +15°C° 0 mm 4 m/S 769 mmHg 58%
    13:00 +17°C° 0 mm 4 m/S 769 mmHg 58%
    14:00 +17°C° 0 mm 4 m/S 768 mmHg 57%
    15:00 +17°C° 0 mm 4 m/S 768 mmHg 57%
    16:00 +16°C° 0 mm 3 m/S 768 mmHg 62%
    17:00 +13°C° 0 mm 3 m/S 768 mmHg 68%
    18:00 +11°C° 0 mm 3 m/S 768 mmHg 74%
    19:00 +11°C° 0 mm 3 m/S 768 mmHg 76%
    20:00 +10°C° 0 mm 3 m/S 768 mmHg 78%
    21:00 +10°C° 0 mm 3 m/S 768 mmHg 80%
    22:00 +9°C° 0 mm 3 m/S 768 mmHg 83%
    23:00 +9°C° 0 mm 3 m/S 768 mmHg 87%

    übermorgen, 23 Februar, Samstag

    Zeit Temperatur Niederschläge Wind Luftdruck Luftfeuchtigkeit
    00:00 +9°C° 0 mm 3 m/S 768 mmHg 90%
    01:00 +8°C° 0 mm 3 m/S 767 mmHg 91%
    02:00 +8°C° 0 mm 3 m/S 767 mmHg 92%
    03:00 +8°C° 0 mm 3 m/S 767 mmHg 93%
    04:00 +8°C° 0 mm 3 m/S 767 mmHg 93%
    05:00 +7°C° 0 mm 3 m/S 767 mmHg 93%
    06:00 +7°C° 0 mm 3 m/S 767 mmHg 94%
    07:00 +8°C° 0 mm 3 m/S 767 mmHg 89%
    08:00 +9°C° 0 mm 3 m/S 767 mmHg 85%
    09:00 +10°C° 0 mm 3 m/S 767 mmHg 81%
    10:00 +11°C° 0 mm 3 m/S 767 mmHg 75%
    11:00 +13°C° 0 mm 3 m/S 767 mmHg 69%
    12:00 +16°C° 0 mm 3 m/S 767 mmHg 62%
    13:00 +16°C° 0 mm 3 m/S 767 mmHg 60%
    14:00 +17°C° 0 mm 3 m/S 766 mmHg 59%
    15:00 +17°C° 0 mm 3 m/S 766 mmHg 57%
    16:00 +16°C° 0 mm 3 m/S 766 mmHg 63%
    17:00 +13°C° 0 mm 3 m/S 766 mmHg 68%
    18:00 +12°C° 0 mm 2 m/S 767 mmHg 74%
    19:00 +10°C° 0 mm 2 m/S 767 mmHg 77%
    20:00 +10°C° 0 mm 2 m/S 767 mmHg 80%
    21:00 +9°C° 0 mm 2 m/S 767 mmHg 83%
    22:00 +8°C° 0 mm 2 m/S 767 mmHg 85%
    23:00 +8°C° 0 mm 2 m/S 767 mmHg 87%

    24 Februar, Sonntag

    Zeit Temperatur Niederschläge Wind Luftdruck Luftfeuchtigkeit
    00:00 +7°C° 0 mm 2 m/S 767 mmHg 89%
    01:00 +7°C° 0 mm 2 m/S 767 mmHg 90%
    02:00 +7°C° 0 mm 2 m/S 767 mmHg 90%
    03:00 +6°C° 0 mm 2 m/S 767 mmHg 91%
    04:00 +6°C° 0 mm 2 m/S 767 mmHg 91%
    05:00 +6°C° 0 mm 2 m/S 767 mmHg 91%
    06:00 +6°C° 0 mm 2 m/S 768 mmHg 92%
    07:00 +6°C° 0 mm 2 m/S 768 mmHg 87%
    08:00 +7°C° 0 mm 2 m/S 768 mmHg 82%
    09:00 +8°C° 0 mm 2 m/S 769 mmHg 77%
    10:00 +10°C° 0 mm 2 m/S 769 mmHg 71%
    11:00 +13°C° 0 mm 2 m/S 769 mmHg 65%
    12:00 +14°C° 0 mm 2 m/S 769 mmHg 59%
    13:00 +15°C° 0 mm 2 m/S 768 mmHg 58%
    14:00 +16°C° 0 mm 1 m/S 768 mmHg 57%
    15:00 +16°C° 0 mm 1 m/S 768 mmHg 55%
    16:00 +15°C° 0 mm 1 m/S 768 mmHg 61%
    17:00 +13°C° 0 mm 1 m/S 768 mmHg 67%
    18:00 +12°C° 0 mm 1 m/S 768 mmHg 73%
    19:00 +11°C° 0 mm 1 m/S 769 mmHg 75%
    20:00 +11°C° 0 mm 1 m/S 769 mmHg 77%
    21:00 +9°C° 0 mm 2 m/S 769 mmHg 79%
    22:00 +10°C° 0 mm 1 m/S 769 mmHg 81%
    23:00 +9°C° 0 mm 1 m/S 770 mmHg 83%

    25 Februar, Montag

    Zeit Temperatur Niederschläge Wind Luftdruck Luftfeuchtigkeit
    00:00 +9°C° 0 mm 1 m/S 770 mmHg 84%
    01:00 +9°C° 0 mm 1 m/S 770 mmHg 85%
    02:00 +9°C° 0 mm 1 m/S 770 mmHg 87%
    03:00 +8°C° 0 mm 1 m/S 769 mmHg 88%
    04:00 +7°C° 0 mm 2 m/S 769 mmHg 89%
    05:00 +7°C° 0 mm 2 m/S 769 mmHg 90%
    06:00 +7°C° 0 mm 2 m/S 769 mmHg 91%
    07:00 +8°C° 0 mm 2 m/S 769 mmHg 87%
    08:00 +9°C° 0 mm 2 m/S 769 mmHg 84%
    09:00 +10°C° 0 mm 2 m/S 770 mmHg 80%
    10:00 +13°C° 0 mm 2 m/S 769 mmHg 74%
    11:00 +14°C° 0 mm 2 m/S 769 mmHg 69%
    12:00 +16°C° 0 mm 2 m/S 769 mmHg 64%
    13:00 +17°C° 0 mm 3 m/S 769 mmHg 61%
    14:00 +17°C° 0 mm 3 m/S 768 mmHg 59%
    15:00 +18°C° 0 mm 3 m/S 768 mmHg 57%
    16:00 +16°C° 0 mm 3 m/S 768 mmHg 61%
    17:00 +13°C° 0 mm 3 m/S 768 mmHg 66%
    18:00 +12°C° 0 mm 3 m/S 768 mmHg 70%
    19:00 +11°C° 0 mm 3 m/S 768 mmHg 71%
    20:00 +10°C° 0 mm 3 m/S 768 mmHg 73%
    21:00 +9°C° 0 mm 3 m/S 768 mmHg 74%
    22:00 +8°C° 0 mm 3 m/S 767 mmHg 77%
    23:00 +8°C° 0 mm 3 m/S 767 mmHg 80%

    26 Februar, Dienstag

    Zeit Temperatur Niederschläge Wind Luftdruck Luftfeuchtigkeit
    00:00 +7°C° 0 mm 3 m/S 767 mmHg 82%
    01:00 +7°C° 0 mm 3 m/S 767 mmHg 84%
    02:00 +7°C° 0 mm 3 m/S 766 mmHg 86%
    03:00 +5°C° 0 mm 3 m/S 766 mmHg 88%
    04:00 +5°C° 0 mm 3 m/S 766 mmHg 88%
    05:00 +4°C° 0 mm 3 m/S 766 mmHg 88%
    06:00 +4°C° 0 mm 3 m/S 765 mmHg 89%
    07:00 +5°C° 0 mm 3 m/S 765 mmHg 84%
    08:00 +8°C° 0 mm 3 m/S 765 mmHg 80%
    09:00 +9°C° 0 mm 3 m/S 765 mmHg 76%
    10:00 +11°C° 0 mm 3 m/S 765 mmHg 72%
    11:00 +14°C° 0 mm 3 m/S 765 mmHg 68%
    12:00 +17°C° 0 mm 3 m/S 765 mmHg 63%
    13:00 +18°C° 0 mm 4 m/S 764 mmHg 61%
    14:00 +18°C° 0 mm 4 m/S 764 mmHg 59%
    15:00 +19°C° 0 mm 4 m/S 763 mmHg 57%
    16:00 +17°C° 0 mm 4 m/S 763 mmHg 64%
    17:00 +14°C° 0 mm 3 m/S 763 mmHg 70%
    18:00 +14°C° 0 mm 2 m/S 763 mmHg 76%
    19:00 +13°C° 0 mm 2 m/S 763 mmHg 77%
    20:00 +12°C° 0 mm 3 m/S 763 mmHg 79%
    21:00 +11°C° 0 mm 3 m/S 763 mmHg 80%
    22:00 +10°C° 0 mm 3 m/S 763 mmHg 79%
    23:00 +10°C° 0 mm 3 m/S 763 mmHg 78%
    Mehr zeigen